N79JW KHVN-KPVD

Flight info

Callsign N79JW
Flight time 0h 17m
Altitude 11000
Route MAD CARLD V188 GON
Aircraft CRJ7/M-SDFGIRWY/S

Departure

Time 2026-05-07 14:45
Airport Tweed New Haven Airport (KHVN)

Arrival

Time 2026-05-07 15:03
Airport Rhode Island T. F. Green International Airport (KPVD)
Time Latitude Longitude Altitude Speed Heading
2026-05-07 14:10 41.26674 -72.88355 16 ft 0 kts 212°
2026-05-07 14:38 41.26672 -72.88357 15 ft 3 kts 218°
2026-05-07 14:38 41.26645 -72.88419 15 ft 10 kts 261°
2026-05-07 14:38 41.26663 -72.88508 15 ft 11 kts 298°
2026-05-07 14:38 41.26672 -72.88601 15 ft 10 kts 231°
2026-05-07 14:39 41.26642 -72.88624 17 ft 5 kts 185°
2026-05-07 14:39 41.26581 -72.88615 15 ft 13 kts 173°
2026-05-07 14:39 41.26519 -72.88575 16 ft 7 kts 130°
2026-05-07 14:39 41.26489 -72.88520 16 ft 9 kts 133°
2026-05-07 14:40 41.26437 -72.88453 15 ft 10 kts 155°
2026-05-07 14:40 41.26429 -72.88452 16 ft 3 kts 204°
2026-05-07 14:40 41.26399 -72.88481 15 ft 9 kts 218°
2026-05-07 14:40 41.26334 -72.88545 17 ft 14 kts 218°
2026-05-07 14:41 41.26248 -72.88611 15 ft 15 kts 194°
2026-05-07 14:41 41.26138 -72.88637 15 ft 17 kts 194°
2026-05-07 14:41 41.26018 -72.88667 15 ft 18 kts 190°
2026-05-07 14:41 41.25885 -72.88701 15 ft 20 kts 191°
2026-05-07 14:42 41.25774 -72.88715 15 ft 11 kts 180°
2026-05-07 14:42 41.25692 -72.88719 16 ft 3 kts 183°
2026-05-07 14:44 41.25667 -72.88721 16 ft 8 kts 186°
2026-05-07 14:44 41.25606 -72.88778 15 ft 11 kts 256°
2026-05-07 14:44 41.25611 -72.88810 16 ft 3 kts 323°
2026-05-07 14:45 41.25669 -72.88822 18 ft 17 kts
2026-05-07 14:45 41.26024 -72.88798 17 ft 86 kts
2026-05-07 14:45 41.26816 -72.88744 65 ft 133 kts
2026-05-07 14:45 41.27723 -72.88570 685 ft 134 kts
2026-05-07 14:46 41.28692 -72.88295 1215 ft 146 kts 10°
2026-05-07 14:46 41.29722 -72.87986 1754 ft 160 kts 10°
2026-05-07 14:46 41.30933 -72.87604 2067 ft 197 kts 11°
2026-05-07 14:46 41.32345 -72.87089 2820 ft 221 kts 18°
2026-05-07 14:47 41.33674 -72.85968 3839 ft 229 kts 37°
2026-05-07 14:47 41.34727 -72.84216 4436 ft 265 kts 62°
2026-05-07 14:47 41.35002 -72.81606 4713 ft 306 kts 99°
2026-05-07 14:47 41.34258 -72.79034 6154 ft 290 kts 117°
2026-05-07 14:48 41.33403 -72.76596 7246 ft 294 kts 118°
2026-05-07 14:48 41.32584 -72.74076 8220 ft 300 kts 116°
2026-05-07 14:48 41.31831 -72.71458 9184 ft 306 kts 114°
2026-05-07 14:48 41.31399 -72.68633 10067 ft 321 kts 91°
2026-05-07 14:49 41.31940 -72.65730 10686 ft 341 kts 64°
2026-05-07 14:49 41.33186 -72.62857 10999 ft 369 kts 58°
2026-05-07 14:49 41.34554 -72.59847 11126 ft 400 kts 60°
2026-05-07 14:49 41.35922 -72.56536 11176 ft 423 kts 64°
2026-05-07 14:50 41.36758 -72.52827 11182 ft 427 kts 87°
2026-05-07 14:50 41.36869 -72.48860 11201 ft 433 kts 90°
2026-05-07 14:50 41.36965 -72.44857 11192 ft 426 kts 100°
2026-05-07 14:50 41.36354 -72.41069 11193 ft 415 kts 110°
2026-05-07 14:51 41.35766 -72.37310 11190 ft 414 kts 104°
2026-05-07 14:51 41.35337 -72.33528 11191 ft 413 kts 103°
2026-05-07 14:51 41.34980 -72.29730 11188 ft 415 kts 101°
2026-05-07 14:51 41.34698 -72.25883 11210 ft 419 kts 99°
2026-05-07 14:52 41.34454 -72.22090 11220 ft 421 kts 100°
2026-05-07 14:52 41.34276 -72.19499 11222 ft 423 kts 100°
2026-05-07 14:52 41.33964 -72.15600 11226 ft 423 kts 102°
2026-05-07 14:52 41.33622 -72.11705 11215 ft 425 kts 101°
2026-05-07 14:53 41.33271 -72.07798 11210 ft 426 kts 102°
2026-05-07 14:53 41.32993 -72.03866 11199 ft 430 kts 96°
2026-05-07 14:53 41.33089 -71.99869 11210 ft 434 kts 89°
2026-05-07 14:53 41.33380 -71.95867 11214 ft 435 kts 88°
2026-05-07 14:54 41.33679 -71.91853 11219 ft 436 kts 88°
2026-05-07 14:54 41.33935 -71.87949 11220 ft 428 kts 89°
2026-05-07 14:54 41.34306 -71.84022 11204 ft 433 kts 80°
2026-05-07 14:54 41.35232 -71.80173 11211 ft 440 kts 71°
2026-05-07 14:55 41.36342 -71.76452 11215 ft 418 kts 70°
2026-05-07 14:55 41.37382 -71.72982 11215 ft 391 kts 71°
2026-05-07 14:55 41.38314 -71.69679 11115 ft 371 kts 73°
2026-05-07 14:55 41.39143 -71.66501 10992 ft 357 kts 73°
2026-05-07 14:56 41.39928 -71.63431 10693 ft 344 kts 74°
2026-05-07 14:56 41.40680 -71.60455 10180 ft 336 kts 74°
2026-05-07 14:56 41.41427 -71.57525 9582 ft 332 kts 72°
2026-05-07 14:56 41.42182 -71.54655 9000 ft 328 kts 71°
2026-05-07 14:57 41.42933 -71.51854 8385 ft 324 kts 70°
2026-05-07 14:57 41.43674 -71.49051 7822 ft 318 kts 70°
2026-05-07 14:57 41.44401 -71.46294 7242 ft 312 kts 70°
2026-05-07 14:57 41.45244 -71.43667 6627 ft 305 kts 56°
2026-05-07 14:58 41.46637 -71.41610 6005 ft 295 kts 34°
2026-05-07 14:58 41.48347 -71.40220 5533 ft 279 kts 20°
2026-05-07 14:58 41.50090 -71.39352 5072 ft 269 kts 13°
2026-05-07 14:58 41.51850 -71.38624 4667 ft 261 kts 11°
2026-05-07 14:59 41.53564 -71.37974 4323 ft 252 kts 11°
2026-05-07 14:59 41.55239 -71.37338 3925 ft 250 kts 12°
2026-05-07 14:59 41.56925 -71.36736 3489 ft 250 kts
2026-05-07 14:59 41.58595 -71.36333 3293 ft 237 kts
2026-05-07 15:00 41.60210 -71.36190 3064 ft 230 kts 359°
2026-05-07 15:00 41.61792 -71.36117 2753 ft 227 kts 359°
2026-05-07 15:00 41.63350 -71.36082 2446 ft 219 kts 358°
2026-05-07 15:00 41.64840 -71.36078 2074 ft 209 kts 357°
2026-05-07 15:01 41.66256 -71.36147 1666 ft 199 kts 349°
2026-05-07 15:01 41.67399 -71.36971 1373 ft 179 kts 318°
2026-05-07 15:01 41.68188 -71.37962 1309 ft 136 kts 320°
2026-05-07 15:01 41.68929 -71.38804 1121 ft 135 kts 324°
2026-05-07 15:02 41.69673 -71.39516 833 ft 130 kts 324°
2026-05-07 15:02 41.70352 -71.40253 563 ft 121 kts 321°
2026-05-07 15:02 41.71029 -71.40966 316 ft 129 kts 322°
2026-05-07 15:02 41.71733 -71.41697 116 ft 122 kts 322°
2026-05-07 15:03 41.72316 -71.42316 53 ft 84 kts 321°
2026-05-07 15:03 41.72604 -71.42612 49 ft 26 kts 340°
2026-05-07 15:03 41.72711 -71.42556 49 ft 16 kts 32°
2026-05-07 15:03 41.72816 -71.42472 48 ft 19 kts 34°
2026-05-07 15:04 41.72929 -71.42368 51 ft 20 kts 31°
2026-05-07 15:04 41.73043 -71.42278 50 ft 16 kts 26°
2026-05-07 15:04 41.73115 -71.42281 51 ft 8 kts 308°
2026-05-07 15:04 41.73150 -71.42352 50 ft 10 kts 299°
2026-05-07 15:05 41.73181 -71.42435 55 ft 10 kts 274°
2026-05-07 15:05 41.73179 -71.42534 56 ft 11 kts 267°
2026-05-07 15:05 41.73178 -71.42577 57 ft 0 kts 270°
2026-05-07 15:07 41.73178 -71.42578 57 ft 1 kts 269°
2026-05-07 15:07 41.73177 -71.42638 54 ft 12 kts 269°
2026-05-07 15:07 41.73176 -71.42754 58 ft 8 kts 283°
2026-05-07 15:08 41.73191 -71.42772 58 ft 1 kts
2026-05-07 15:08 41.73206 -71.42769 58 ft 0 kts 26°
2026-05-07 15:08 41.73206 -71.42768 58 ft 0 kts 31°
2026-05-07 15:09 41.73209 -71.42766 58 ft 0 kts 358°